Temperature
21 21 21 21 21 21 19 18 18 17 17 14 15 14 12 11 11 8 6 7 7 8 8 9 8 8 7 7 7 6 6 6 5 5 5 5 5 4 4 4 5 5 5 5 6 6 7 7 7
21 21 21 22 22 20 18 18 18 17 15 14 15 15 13 10 9 7 6 7 7 8 9 9 9 8 7 7 6 5 5 5 4 4 4 4 4 4 4 3 3 3 3 3 4 4 5 5 6
22 22 23 22 21 20 18 18 15 14 14 14 13 13 12 10 8 7 7 7 7 8 9 9 9 8 7 6 5 4 4 4 4 4 4 4 4 4 4 3 3 3 3 3 3 3 3 3 4
21 22 24 21 19 19 18 16 15 14 14 14 13 11 9 9 8 7 7 6 7 8 8 8 8 8 7 6 5 5 4 4 4 4 4 4 4 4 4 4 4 4 4 3 3 2 2 2 2
22 23 22 19 19 18 17 16 15 15 14 14 14 11 8 7 7 7 7 6 7 7 8 8 8 7 7 6 6 5 5 4 4 4 4 4 4 4 4 4 4 4 4 3 3 3 2 2 2
23 24 22 19 18 17 17 16 17 16 15 14 14 11 8 7 6 6 6 6 7 7 7 7 7 7 6 6 6 5 5 4 4 4 4 4 4 4 3 3 3 3 3 3 3 3 2 2 2
23 22 21 18 17 17 17 16 17 16 15 14 14 11 8 6 6 6 6 6 7 7 7 7 7 6 6 5 4 4 4 4 4 4 4 4 4 4 4 4 4 3 2 2 2 2 2 2 1
22 22 21 19 18 17 16 16 16 16 15 14 14 13 9 7 6 6 6 6 6 6 6 6 6 6 6 5 4 4 3 4 4 4 4 4 4 4 4 3 3 3 2 2 2 1 1 1 1
22 22 20 20 19 16 15 15 14 14 13 12 12 12 11 9 7 6 6 6 5 5 6 6 6 6 5 5 4 4 3 3 3 3 3 3 3 3 3 2 2 2 2 2 1 1 1 1 1
22 20 19 18 19 16 15 15 13 13 12 12 11 9 9 8 7 6 6 6 5 5 5 6 6 5 5 4 3 3 3 3 2 2 2 2 2 1 1 1 1 0 0 0 -0 -0 -0 -0 -0
19 17 17 17 17 16 15 15 13 14 13 13 11 9 8 7 7 7 6 6 5 5 5 5 5 5 4 4 3 2 2 2 2 2 1 1 1 0 -0 -1 -1 -2 -2 -2 -3 -3 -3 -3 -3
17 17 16 15 16 16 15 15 14 14 14 14 13 10 8 7 7 7 6 6 5 4 4 4 4 4 4 3 3 2 1 1 1 1 0 -0 -1 -1 -2 -2 -3 -4 -5 -5 -6 -6 -6 -6 -5
16 15 14 13 14 15 15 14 14 14 13 12 12 10 8 7 7 7 7 6 5 4 4 4 4 4 3 3 2 2 1 1 0 -0 -1 -1 -2 -2 -3 -4 -4 -5 -6 -7 -7 -7 -7 -7 -7
16 15 14 14 14 14 14 14 13 13 13 12 11 9 8 8 7 7 6 5 4 4 4 4 4 4 3 2 2 1 1 0 0 -1 -1 -2 -3 -3 -4 -4 -5 -6 -7 -8 -8 -8 -8 -8 -8
16 15 15 14 14 14 13 14 13 14 12 11 10 9 8 8 8 7 6 5 4 4 3 3 3 3 3 2 1 1 1 0 -0 -1 -2 -2 -3 -4 -5 -5 -6 -7 -8 -8 -8 -9 -9 -9 -9
18 17 16 15 15 14 13 14 16 14 12 11 10 9 9 8 8 7 7 6 4 4 3 3 3 3 3 2 1 1 0 0 -0 -1 -2 -3 -4 -5 -5 -6 -7 -8 -8 -9 -9 -9 -9 -10 -10
18 19 19 15 15 14 12 14 15 14 12 11 11 10 9 9 8 8 7 6 4 4 3 3 3 3 2 2 1 1 0 -0 -1 -1 -2 -4 -4 -5 -6 -7 -8 -9 -9 -9 -10 -10 -10 -10 -10
20 21 21 18 15 15 13 14 15 13 12 12 11 11 10 10 9 8 7 6 4 3 3 2 2 2 2 2 1 1 0 -0 -1 -2 -3 -4 -5 -6 -7 -8 -8 -9 -9 -10 -10 -10 -10 -11 -11
20 20 20 19 16 15 15 15 16 14 12 12 12 12 11 11 10 9 7 6 4 3 3 2 2 2 2 2 1 1 0 -0 -1 -2 -4 -5 -5 -7 -8 -8 -9 -9 -10 -10 -10 -11 -11 -11 -11
20 20 20 18 15 15 15 15 17 16 12 12 12 13 12 12 11 10 8 6 5 4 2 1 1 1 2 2 1 0 -0 -1 -2 -4 -4 -5 -6 -7 -8 -9 -9 -10 -10 -10 -10 -11 -11 -11 -11
20 19 18 17 18 16 15 16 17 16 16 14 13 13 13 13 12 10 8 7 5 3 2 1 1 2 1 1 1 -0 -1 -1 -3 -4 -4 -5 -7 -8 -8 -9 -10 -10 -10 -10 -10 -11 -11 -11 -11
19 17 17 17 16 17 17 16 16 15 14 14 14 13 13 13 12 11 9 7 5 3 2 2 1 2 1 1 0 -0 -1 -2 -3 -4 -5 -6 -7 -8 -8 -9 -10 -10 -10 -10 -10 -10 -11 -11 -11
17 16 16 16 16 16 17 16 18 17 15 14 14 14 13 13 12 11 10 8 5 4 2 2 1 1 1 1 0 -1 -1 -2 -3 -4 -5 -6 -7 -8 -9 -10 -10 -10 -10 -10 -11 -10 -11 -11 -11
16 16 16 15 16 16 18 17 18 17 19 18 16 16 15 13 12 11 10 8 5 3 3 2 1 1 1 1 -0 -1 -1 -2 -3 -4 -5 -6 -7 -8 -9 -10 -10 -10 -11 -11 -11 -11 -10 -11 -11
15 16 16 16 15 17 18 17 17 20 19 19 17 16 15 14 12 10 9 7 5 4 3 2 1 1 1 0 -0 -1 -2 -2 -4 -5 -5 -6 -7 -8 -9 -10 -10 -11 -11 -11 -11 -11 -11 -11 -11
18 17 16 17 18 18 16 16 18 19 19 18 17 16 15 13 12 10 9 7 5 4 3 2 1 1 1 0 -1 -1 -2 -3 -4 -5 -6 -6 -7 -8 -9 -10 -10 -11 -11 -11 -11 -11 -11 -11 -11
17 17 17 16 17 16 17 19 20 17 16 16 15 14 14 13 11 10 8 6 5 3 2 1 1 1 1 0 -1 -1 -2 -3 -4 -5 -6 -6 -7 -8 -9 -10 -10 -11 -11 -11 -11 -11 -11 -11 -11
14 15 15 15 15 15 17 19 18 16 15 15 14 15 15 13 12 10 8 6 4 2 1 1 1 1 0 -0 -1 -1 -2 -3 -4 -5 -6 -7 -7 -8 -9 -10 -11 -11 -11 -12 -12 -11 -11 -11 -11
14 15 15 15 16 14 15 16 20 18 18 18 16 17 16 14 13 10 8 5 3 2 1 1 1 1 0 -0 -1 -1 -2 -3 -4 -5 -6 -7 -7 -8 -9 -10 -10 -11 -11 -12 -12 -12 -11 -11 -11
16 16 16 15 15 15 13 15 19 19 19 19 18 17 16 15 13 11 8 5 3 2 1 1 1 1 0 -0 -1 -2 -2 -3 -4 -5 -6 -7 -7 -8 -9 -9 -10 -11 -11 -12 -12 -12 -11 -11 -11
Wind_Speed
8 11 6 2 3 5 6 6 8 9 6 6 8 8 8 7 7 11 6 6 8 12 15 17 18 18 20 21 21 22 23 24 24 25 26 26 26 26 26 26 27 27 27 28 28 29 30 30 30
8 6 4 4 3 4 6 7 10 8 9 7 5 8 9 8 9 9 6 5 10 12 14 15 16 17 19 20 20 21 22 22 23 24 25 25 25 25 25 25 25 26 26 26 26 27 28 29 29
9 8 4 2 5 5 8 10 13 11 9 6 5 8 6 7 8 6 5 5 12 13 13 14 15 16 17 18 19 20 20 21 22 23 24 24 25 25 25 25 25 25 26 26 26 26 26 26 27
5 4 2 6 9 8 10 14 13 11 5 6 8 8 5 6 5 8 7 8 11 12 12 12 14 14 15 17 18 19 20 21 22 22 24 25 24 25 25 25 25 26 27 27 26 26 26 26 26
4 4 3 6 7 10 12 14 12 9 8 6 8 8 7 7 11 11 8 9 9 10 10 10 11 12 13 14 17 18 19 21 22 22 24 25 25 25 25 25 26 27 28 28 28 28 27 27 27
4 4 3 8 9 10 10 9 7 10 8 5 7 9 7 9 9 9 8 9 10 10 9 9 11 12 12 12 15 17 18 20 21 22 24 25 24 25 25 26 27 27 28 28 29 29 28 28 28
3 3 5 9 8 7 8 6 5 8 7 6 6 8 8 10 10 8 8 10 10 9 9 9 11 12 13 14 13 15 16 18 20 21 23 24 24 25 26 26 28 28 28 29 29 29 29 30 29
5 2 7 7 9 7 9 5 3 5 6 5 2 5 9 13 11 8 7 7 8 8 9 9 11 12 13 13 13 14 16 18 20 21 23 24 24 25 26 26 28 29 30 30 30 30 31 31 29
5 2 5 5 7 8 11 6 4 5 8 4 3 7 13 19 13 9 7 7 6 7 8 9 10 11 13 13 13 13 14 16 18 18 21 21 22 23 23 25 27 28 29 30 29 30 31 30 28
6 4 6 6 5 9 11 8 8 5 7 6 6 10 17 15 12 10 9 8 7 7 6 9 8 9 12 11 12 12 12 13 15 16 18 18 20 20 20 23 25 27 28 27 28 30 28 27 25
7 6 6 7 8 11 10 8 9 7 6 9 12 14 14 12 11 10 8 8 8 7 6 6 5 7 9 11 11 11 11 11 13 14 16 16 17 18 19 19 20 22 23 22 24 23 23 24 25
6 7 7 6 6 8 8 7 7 8 1 3 14 18 16 12 12 10 8 8 9 7 6 5 4 6 7 8 9 10 10 10 12 12 13 14 14 15 17 17 19 19 19 20 20 20 23 24 25
7 6 9 7 4 5 5 5 5 8 5 6 12 16 15 13 11 9 8 9 8 7 6 4 4 6 5 6 7 9 9 9 11 11 11 14 13 13 15 16 18 19 19 19 20 20 21 21 23
8 9 8 7 5 3 4 6 5 8 9 9 12 13 13 13 12 10 8 8 8 8 6 5 4 4 5 5 7 7 7 9 9 10 11 12 13 15 15 15 16 17 18 19 20 20 19 19 19
10 8 6 6 6 5 4 7 10 7 11 11 12 12 13 13 11 10 10 9 8 8 7 6 2 2 4 5 6 7 7 7 8 8 10 11 14 15 15 14 14 16 19 20 19 19 17 15 16
7 5 6 8 8 6 3 7 7 12 12 11 12 12 12 12 11 10 11 10 9 9 7 5 2 2 3 5 6 7 6 7 7 8 9 10 13 14 14 13 13 17 18 17 15 11 6 9 10
7 7 5 8 9 7 6 7 5 12 12 12 12 12 12 12 12 11 11 11 10 9 8 6 5 2 1 4 6 6 6 7 7 7 8 9 11 13 14 14 14 17 16 14 14 9 7 10 10
2 5 3 7 10 9 8 10 7 12 13 12 12 12 13 14 14 12 11 11 11 9 7 6 4 3 0 2 5 5 5 6 7 6 7 9 10 12 13 13 14 16 11 8 8 9 8 8 10
5 6 7 4 8 6 10 12 10 15 13 12 12 13 13 13 13 13 13 12 11 10 8 7 4 2 1 1 2 3 3 4 6 6 7 9 10 12 13 12 13 13 7 7 8 9 10 9 8
5 7 5 5 7 5 8 11 10 11 17 14 13 13 13 12 12 13 13 13 12 11 10 8 6 3 1 1 1 3 3 3 6 5 7 8 10 12 12 11 11 12 8 8 9 9 8 11 9
7 2 4 5 4 9 5 6 5 2 7 12 13 12 11 12 13 14 14 13 12 11 11 8 6 4 3 1 2 3 3 4 3 3 4 8 11 12 12 12 12 12 9 7 9 9 10 12 11
3 6 3 5 6 2 5 4 8 7 7 9 12 12 12 11 11 13 16 15 13 11 10 9 7 5 3 2 2 3 4 4 4 3 4 8 11 12 13 13 13 12 11 7 8 8 9 10 12
3 2 4 6 5 5 6 5 4 7 9 12 13 14 13 11 11 11 14 14 13 12 11 9 7 6 5 3 3 4 4 4 4 4 6 5 8 11 13 13 12 12 11 10 9 8 9 8 10
5 4 6 4 3 5 6 4 4 7 7 8 11 11 12 11 11 10 12 13 11 12 10 9 8 7 6 5 5 5 4 5 6 6 5 5 4 8 11 13 13 14 13 11 9 8 10 9 9
5 4 3 3 4 4 4 4 8 7 8 6 9 11 10 10 11 11 13 13 13 13 11 9 8 8 7 6 5 4 4 5 6 5 5 6 5 5 6 11 12 13 14 14 12 8 10 9 9
3 3 4 3 4 1 3 6 7 7 8 6 5 5 8 9 10 11 13 13 13 13 12 10 10 8 7 6 5 4 5 4 3 5 5 6 5 5 10 12 13 14 15 15 12 7 9 8 8
4 3 2 3 6 5 6 7 5 7 7 8 9 9 10 10 11 11 12 13 13 13 12 11 10 8 7 6 5 5 4 4 5 5 5 4 5 9 11 12 12 13 13 12 10 7 10 9 8
4 6 2 3 3 5 7 7 7 9 11 12 12 12 12 11 11 12 12 13 12 12 11 10 9 8 7 6 6 5 5 6 4 5 7 6 6 9 10 9 10 10 10 10 7 8 10 10 9
6 4 5 4 3 3 5 7 5 11 10 9 11 11 12 13 13 12 12 12 12 11 11 10 9 8 7 7 6 5 5 5 5 6 6 5 6 8 7 8 7 7 7 7 7 9 11 11 10
3 6 7 5 5 5 4 9 9 9 8 8 8 7 8 10 12 12 12 12 12 12 11 11 10 9 8 7 6 5 5 6 6 6 6 6 6 8 9 9 7 9 10 8 9 11 12 11 11
Wind_Direction
240 238 238 260 242 86 85 89 112 127 92 60 46 61 72 46 47 114 106 55 49 46 37 23 18 21 22 22 22 22 21 20 18 17 15 14 13 11 10 9 7 5 4 2 0 359 357 355 354
266 252 252 237 251 123 108 128 119 92 103 114 85 87 89 81 88 103 102 70 65 56 49 28 24 25 25 24 22 21 19 18 16 14 12 10 8 8 6 6 5 3 1 359 357 356 353 351 349
275 260 250 273 28 67 123 116 104 103 121 117 77 41 66 102 102 93 103 95 78 66 61 37 30 28 27 25 22 20 17 16 13 11 9 7 5 4 3 3 2 0 358 356 354 352 350 348 346
279 245 232 61 70 58 109 116 122 126 113 101 113 93 70 56 82 108 113 86 77 69 64 47 33 29 26 23 20 18 16 13 10 8 7 4 3 2 1 1 359 357 355 353 351 349 346 345 342
241 252 129 86 82 86 98 119 140 139 131 139 127 108 101 91 102 114 110 88 78 72 62 51 34 26 20 18 17 14 12 9 7 6 5 2 1 -0 359 359 357 354 352 350 348 346 344 342 339
261 266 161 115 109 104 111 137 156 120 117 131 126 116 122 134 126 119 120 102 85 74 58 40 29 22 13 12 12 7 6 5 4 4 3 1 360 359 358 357 355 351 349 348 346 343 342 340 337
298 314 76 108 130 141 138 151 152 127 141 159 152 118 132 154 133 136 128 109 92 78 63 39 32 22 7 4 8 1 2 2 2 3 2 1 0 358 356 356 351 349 348 346 344 341 341 338 335
314 60 103 125 151 143 134 152 118 137 126 97 139 152 159 157 139 146 130 117 111 93 73 46 31 20 7 356 358 359 0 1 1 2 1 1 359 356 353 352 348 347 347 345 342 342 340 337 336
287 130 105 112 146 133 140 152 101 33 99 120 58 32 127 136 146 156 162 164 134 98 78 60 34 16 6 355 357 356 357 0 360 0 359 359 357 353 349 346 345 345 344 342 340 340 338 338 336
350 77 73 30 52 132 156 157 143 166 149 163 122 92 118 136 156 177 189 160 117 93 74 64 43 19 12 357 351 353 354 359 355 360 359 357 355 348 346 342 341 341 339 339 337 336 337 335 330
35 71 89 46 50 124 152 143 153 185 191 189 169 149 146 160 174 190 182 134 109 97 82 68 53 36 22 354 350 346 350 357 351 356 356 357 351 344 340 339 334 334 334 334 331 332 332 329 325
79 73 88 80 66 118 141 140 173 222 52 104 157 155 160 179 188 192 178 139 123 112 99 74 48 51 29 356 338 341 350 354 346 350 354 356 345 340 339 334 332 332 331 330 331 332 327 323 322
89 97 84 90 88 113 134 170 213 225 155 97 128 151 169 187 191 190 164 134 139 129 117 97 60 51 21 350 340 344 344 344 338 345 353 351 347 343 337 334 332 330 331 333 333 328 324 323 320
110 114 116 126 116 126 193 207 219 234 147 146 151 168 181 193 193 179 156 160 158 139 129 104 60 33 8 358 346 332 332 330 339 342 348 350 355 345 338 333 329 329 333 332 327 324 322 319 316
130 125 140 160 171 162 236 240 214 198 147 169 172 183 192 198 195 184 171 175 157 141 136 127 135 42 13 353 332 317 313 328 334 340 347 353 356 344 340 330 327 329 330 329 325 319 317 318 320
177 173 186 180 180 136 215 271 199 154 160 185 187 193 199 204 197 187 177 165 149 146 146 135 134 40 5 337 314 307 321 333 332 344 344 352 349 342 339 329 323 325 329 325 319 314 322 318 314
203 229 161 159 187 160 211 267 131 147 173 194 198 203 202 205 202 191 178 161 155 156 148 151 142 170 340 316 311 321 331 332 335 337 337 343 342 340 337 323 318 326 323 318 319 327 316 312 311
14 337 358 155 182 195 220 250 203 173 190 204 205 209 209 207 203 193 178 163 156 147 146 161 158 156 27 328 326 319 328 330 323 320 324 339 338 335 330 316 320 321 316 313 313 310 308 308 309
345 320 305 92 147 206 246 261 248 180 194 211 215 211 215 212 198 186 174 161 153 154 163 169 167 153 130 56 331 317 319 308 307 308 326 337 331 325 317 312 313 314 309 306 306 310 310 309 308
281 289 324 98 161 212 277 276 260 188 196 206 215 220 215 210 195 182 172 165 166 169 168 168 165 151 158 132 279 261 270 274 283 298 334 328 319 314 312 310 307 306 304 304 306 309 308 312 316
265 296 3 341 284 216 264 275 176 165 192 198 213 226 228 210 198 183 175 172 172 174 166 164 145 176 189 157 267 289 289 291 314 343 325 312 311 311 308 306 303 303 302 298 301 303 310 312 309
328 58 359 301 297 243 187 285 204 181 208 215 216 220 228 226 201 182 176 176 175 166 143 142 156 193 187 191 246 289 292 298 305 301 285 303 312 313 312 306 305 304 300 293 301 314 304 306 310
0 47 287 280 270 278 201 241 205 174 211 216 214 216 219 217 203 185 174 173 167 148 142 149 166 195 186 193 235 258 275 286 294 297 297 303 310 310 309 307 310 304 299 294 296 300 301 302 302
317 271 238 265 265 256 177 209 240 197 199 184 187 195 200 198 190 174 158 155 146 139 142 153 181 197 185 203 228 244 270 288 299 303 305 304 297 301 306 312 313 306 299 296 296 298 302 301 302
233 274 245 228 223 217 134 213 248 179 157 176 185 185 184 179 173 165 156 158 152 150 154 166 190 201 190 200 222 240 260 272 280 292 296 299 297 298 297 311 305 299 297 300 302 304 304 302 308
259 282 310 287 286 341 193 231 248 155 151 155 163 172 172 177 175 171 167 164 160 162 165 174 194 198 185 197 220 235 254 260 266 278 285 288 287 283 296 303 300 298 301 308 309 306 304 303 306
281 230 23 308 293 278 255 234 199 144 171 193 204 207 209 200 183 173 167 166 166 168 171 179 188 190 186 196 215 232 250 268 269 276 277 273 277 295 302 301 297 299 304 307 312 307 302 300 299
267 319 269 238 265 275 278 256 225 191 221 218 215 217 214 197 182 175 174 173 171 168 170 176 182 187 183 193 215 226 236 252 260 271 275 277 284 296 296 295 297 298 303 308 311 306 299 298 297
184 224 236 262 274 244 276 268 226 178 187 196 207 211 206 193 184 180 177 173 165 160 164 173 182 183 185 197 208 228 247 256 263 268 272 278 288 293 294 296 296 298 299 299 297 295 297 294 295
211 221 202 216 237 214 250 270 252 194 185 189 210 208 189 180 175 173 170 167 166 166 170 180 184 184 188 190 197 224 246 256 261 269 278 288 289 293 294 296 299 302 301 291 287 289 294 288 288
Height
1544 1544 1546 1548 1549 1557 1571 1575 1576 1582 1585 1591 1591 1592 1596 1602 1604 1616 1616 1614 1613 1612 1610 1608 1605 1603 1601 1598 1596 1593 1591 1588 1586 1583 1581 1578 1576 1573 1571 1568 1566 1564 1562 1560 1558 1557 1555 1553 1551
1544 1545 1548 1548 1550 1564 1577 1576 1579 1583 1588 1592 1593 1595 1598 1605 1608 1611 1612 1612 1612 1610 1608 1607 1605 1603 1600 1598 1595 1593 1590 1588 1585 1583 1580 1577 1575 1572 1570 1567 1564 1562 1560 1558 1556 1554 1552 1551 1549
1544 1546 1548 1546 1554 1564 1575 1576 1583 1588 1590 1592 1595 1597 1601 1606 1608 1609 1610 1611 1611 1609 1608 1606 1604 1602 1599 1597 1594 1592 1589 1587 1584 1582 1579 1576 1574 1571 1569 1566 1563 1560 1558 1556 1554 1551 1549 1547 1545
1545 1547 1547 1553 1565 1566 1569 1578 1584 1588 1591 1592 1595 1600 1604 1607 1607 1607 1609 1610 1609 1608 1607 1605 1603 1600 1598 1595 1593 1590 1588 1586 1583 1581 1578 1576 1573 1570 1568 1565 1562 1559 1556 1554 1551 1549 1546 1544 1542
1546 1546 1549 1564 1569 1572 1575 1580 1584 1587 1590 1593 1594 1599 1604 1606 1606 1606 1607 1608 1608 1607 1606 1604 1602 1599 1597 1594 1592 1590 1587 1585 1583 1580 1577 1575 1572 1570 1567 1564 1560 1557 1555 1552 1549 1546 1543 1541 1538
1548 1544 1552 1569 1574 1576 1580 1583 1583 1586 1590 1593 1595 1599 1604 1605 1605 1606 1607 1607 1606 1606 1605 1603 1601 1599 1596 1594 1591 1589 1586 1584 1582 1579 1576 1573 1571 1568 1565 1562 1558 1555 1552 1549 1546 1543 1540 1537 1535
1547 1545 1552 1566 1576 1578 1581 1583 1584 1587 1590 1593 1595 1598 1602 1604 1604 1605 1605 1606 1605 1604 1603 1602 1600 1598 1595 1593 1590 1588 1585 1583 1581 1578 1576 1573 1570 1567 1564 1560 1557 1553 1550 1547 1543 1540 1537 1534 1531
1547 1548 1556 1564 1573 1576 1580 1583 1585 1587 1589 1592 1594 1596 1598 1601 1601 1603 1604 1604 1604 1603 1602 1600 1599 1597 1594 1591 1589 1587 1585 1583 1580 1578 1575 1572 1569 1566 1563 1559 1556 1552 1549 1545 1541 1538 1534 1530 1527
1548 1551 1560 1562 1567 1574 1579 1583 1585 1587 1589 1592 1594 1593 1592 1595 1599 1602 1603 1603 1603 1601 1600 1598 1597 1595 1593 1590 1588 1586 1584 1581 1579 1576 1573 1570 1567 1564 1560 1557 1554 1550 1546 1542 1539 1535 1531 1526 1522
1549 1555 1564 1565 1564 1571 1578 1581 1585 1587 1590 1592 1594 1594 1594 1594 1597 1600 1602 1602 1601 1600 1598 1596 1595 1593 1591 1588 1586 1584 1582 1579 1576 1573 1570 1567 1564 1560 1557 1553 1550 1546 1542 1538 1535 1531 1526 1522 1517
1556 1563 1567 1569 1568 1572 1577 1581 1584 1586 1587 1588 1590 1592 1592 1594 1596 1598 1600 1600 1598 1597 1596 1594 1592 1590 1588 1586 1583 1581 1579 1576 1573 1571 1567 1564 1560 1556 1552 1548 1544 1540 1536 1532 1528 1525 1521 1517 1513
1563 1567 1569 1572 1572 1575 1578 1580 1583 1584 1584 1584 1584 1586 1589 1591 1593 1596 1597 1596 1595 1594 1593 1592 1590 1588 1586 1583 1581 1578 1576 1573 1570 1567 1563 1559 1555 1551 1547 1543 1539 1535 1531 1527 1524 1520 1516 1512 1509
1566 1571 1572 1574 1575 1577 1579 1580 1581 1581 1582 1582 1583 1584 1586 1589 1591 1593 1594 1593 1592 1591 1590 1589 1587 1585 1583 1581 1578 1575 1573 1570 1567 1564 1560 1556 1551 1547 1543 1539 1535 1531 1527 1524 1520 1516 1512 1508 1504
1568 1571 1574 1576 1577 1578 1579 1579 1580 1577 1578 1580 1581 1582 1584 1586 1588 1590 1590 1590 1590 1588 1587 1586 1585 1583 1580 1578 1575 1572 1569 1567 1564 1561 1557 1553 1548 1544 1540 1535 1531 1528 1524 1521 1517 1513 1509 1505 1501
1569 1572 1575 1576 1577 1578 1579 1577 1573 1573 1575 1577 1579 1580 1582 1583 1585 1586 1586 1586 1586 1584 1583 1582 1581 1580 1577 1575 1572 1569 1566 1564 1561 1558 1554 1550 1546 1541 1537 1532 1529 1525 1521 1517 1514 1510 1506 1502 1498
1567 1569 1574 1573 1574 1576 1581 1576 1563 1568 1572 1575 1576 1577 1578 1580 1581 1582 1583 1582 1581 1580 1579 1578 1578 1576 1574 1571 1569 1566 1564 1561 1558 1555 1552 1547 1543 1539 1534 1530 1526 1522 1519 1515 1511 1507 1503 1498 1494
1566 1564 1562 1573 1571 1574 1577 1572 1566 1566 1569 1571 1573 1574 1575 1576 1577 1578 1578 1577 1576 1576 1575 1574 1574 1572 1570 1568 1565 1563 1561 1558 1556 1552 1548 1544 1540 1536 1532 1527 1523 1520 1516 1512 1509 1505 1500 1495 1490
1560 1556 1554 1562 1568 1570 1572 1568 1564 1564 1565 1566 1568 1570 1570 1571 1571 1573 1574 1572 1571 1571 1571 1570 1570 1568 1567 1565 1563 1560 1558 1556 1553 1549 1546 1542 1538 1533 1529 1524 1521 1517 1513 1509 1506 1502 1497 1492 1487
1557 1558 1558 1558 1564 1567 1566 1562 1557 1558 1561 1562 1563 1564 1565 1565 1567 1568 1568 1567 1566 1566 1566 1566 1566 1564 1563 1561 1559 1557 1554 1552 1549 1546 1543 1539 1535 1530 1526 1522 1518 1514 1511 1507 1503 1499 1494 1488 1484
1558 1559 1556 1560 1563 1563 1561 1557 1550 1550 1553 1554 1557 1558 1559 1560 1562 1562 1562 1561 1560 1561 1562 1562 1561 1561 1559 1558 1555 1553 1550 1548 1545 1543 1540 1536 1531 1527 1523 1519 1515 1511 1508 1504 1500 1496 1491 1485 1481
1556 1558 1560 1563 1558 1557 1562 1554 1549 1548 1548 1550 1551 1552 1553 1554 1555 1556 1556 1555 1555 1556 1556 1557 1557 1557 1556 1554 1552 1549 1547 1545 1542 1540 1536 1532 1528 1524 1520 1516 1512 1509 1505 1501 1497 1494 1489 1483 1476
1559 1560 1561 1562 1565 1558 1558 1564 1549 1546 1548 1546 1546 1546 1546 1548 1550 1550 1549 1549 1550 1551 1551 1552 1553 1553 1552 1550 1548 1546 1544 1541 1539 1535 1531 1528 1525 1521 1517 1513 1509 1506 1502 1498 1495 1491 1486 1481 1474
1560 1561 1562 1562 1562 1561 1554 1560 1545 1541 1543 1540 1539 1539 1540 1542 1544 1545 1544 1544 1545 1546 1546 1548 1549 1549 1548 1546 1544 1542 1540 1538 1535 1531 1528 1524 1521 1517 1513 1510 1506 1502 1499 1495 1491 1487 1483 1478 1472
1561 1561 1561 1562 1562 1564 1547 1553 1544 1538 1530 1530 1531 1533 1534 1536 1538 1540 1540 1541 1541 1540 1540 1543 1545 1544 1544 1542 1540 1539 1537 1534 1531 1528 1524 1520 1516 1513 1510 1506 1502 1498 1495 1491 1487 1483 1479 1474 1469
1563 1565 1567 1567 1572 1555 1545 1549 1542 1523 1522 1524 1526 1528 1529 1531 1533 1534 1535 1534 1534 1534 1536 1539 1540 1540 1539 1538 1537 1535 1533 1531 1527 1524 1520 1516 1512 1509 1505 1502 1498 1494 1491 1487 1483 1479 1475 1470 1465
1556 1560 1569 1571 1561 1551 1549 1550 1529 1516 1518 1520 1522 1524 1525 1526 1527 1528 1528 1528 1528 1529 1531 1534 1535 1535 1535 1534 1533 1532 1530 1527 1524 1520 1517 1513 1509 1505 1502 1498 1494 1490 1487 1483 1479 1474 1470 1466 1461
1557 1556 1557 1563 1554 1559 1548 1530 1518 1516 1517 1518 1519 1520 1520 1521 1522 1522 1523 1523 1523 1524 1525 1528 1530 1531 1530 1530 1529 1528 1526 1523 1520 1517 1513 1509 1505 1502 1498 1494 1490 1486 1482 1478 1474 1469 1465 1461 1457
1561 1559 1561 1563 1567 1567 1545 1530 1525 1520 1516 1514 1514 1514 1513 1515 1516 1516 1516 1517 1518 1519 1521 1523 1525 1526 1526 1525 1525 1524 1522 1519 1516 1513 1509 1505 1502 1498 1494 1490 1486 1482 1478 1474 1469 1465 1460 1457 1452
1561 1560 1558 1556 1555 1566 1561 1540 1504 1505 1504 1505 1506 1507 1507 1508 1509 1509 1510 1511 1513 1514 1515 1518 1520 1521 1521 1520 1520 1519 1517 1515 1512 1509 1505 1502 1498 1495 1490 1486 1482 1478 1473 1469 1465 1460 1456 1452 1447
1548 1549 1552 1561 1555 1554 1560 1539 1499 1497 1497 1499 1501 1503 1503 1503 1503 1504 1505 1506 1507 1508 1509 1512 1514 1515 1516 1516 1515 1515 1513 1511 1508 1505 1502 1498 1495 1491 1487 1483 1478 1473 1469 1464 1460 1455 1451 1447 1442